Weather History for KBXA - November, 2013

Change the Weather History Date:

Friday, November 15, 2013

  Actual Average Record
Temperature  
Mean Temperature 61 °F -  
Max Temperature 66 °F 68 °F 66 °F (2013)
Min Temperature 56 °F 46 °F 28 °F (2014)
Degree Days  
Heating Degree Days 4    
Growing Degree Days 11 (Base 50)    
Moisture  
Dew Point 56 °F    
Average Humidity 81    
Maximum Humidity 90    
Minimum Humidity 66    
Precipitation  
Precipitation 0.19 in - - ()
Sea Level Pressure  
Sea Level Pressure 30.08 in    
Wind  
Wind Speed 2 mph (NE)    
Max Wind Speed 9 mph    
Max Gust Speed -    
Visibility 10 miles    
Events Rain    
Averages and records for this station are not official NWS values.
T = Trace of Precipitation, MM = Missing Value Source: NWS Daily Summary

Daily Weather History Graph

Daily Weather History Graph

Search for Another Location

Airport or City:

Trip Planner

Search our weather history database for the weather conditions in past years. The results will help you decide how hot, cold, wet, or windy it might be!

Date:

Astronomy

Nov. 15, 2013 Rise Set
Actual Time 6:26 AM CST 5:01 PM CST
Civil Twilight 6:00 AM CST 5:27 PM CST
Nautical Twilight 5:31 AM CST 5:56 PM CST
Astronomical Twilight 5:02 AM CST 6:25 PM CST
Moon 3:53 PM CST (11/15) 4:29 AM CST (11/15)
Length of Visible Light 11h 26m
Length of Day
10h 35m
Waxing Gibbous, 96% of the Moon is Illuminated
Nov 15
Waxing Gibbous
Nov 17
Full
Nov 25
Last Quarter
Dec 2
New
Dec 9
First Quarter

Hourly Weather History & Observations

Time (CST) Temp. Dew Point Humidity Pressure Visibility Wind Dir Wind Speed Gust Speed Precip Events Conditions
12:15 AM 58.3 °F 46.8 °F 66% 30.16 in 10.0 mi Calm Calm - N/A   Unknown
12:55 AM 58.3 °F 46.9 °F 66% 30.16 in 10.0 mi Calm Calm - N/A   Unknown
1:15 AM 58.1 °F 47.5 °F 68% 30.15 in 10.0 mi NNE 3.5 mph - N/A   Unknown
1:35 AM 57.6 °F 48.2 °F 71% 30.15 in 10.0 mi NNE 3.5 mph - N/A   Unknown
1:55 AM 57.4 °F 48.0 °F 71% 30.14 in 10.0 mi NNE 3.5 mph - N/A   Unknown
2:15 AM 58.1 °F 47.3 °F 67% 30.14 in 10.0 mi Calm Calm - N/A   Unknown
2:35 AM 58.1 °F 47.7 °F 68% 30.13 in 10.0 mi Calm Calm - N/A   Unknown
2:55 AM 58.1 °F 48.4 °F 70% 30.12 in 10.0 mi Calm Calm - N/A   Unknown
3:15 AM 58.5 °F 49.1 °F 71% 30.11 in 10.0 mi East 3.5 mph - N/A   Unknown
3:35 AM 58.8 °F 48.9 °F 70% 30.11 in 10.0 mi ESE 4.6 mph - N/A   Unknown
3:55 AM 59.0 °F 49.1 °F 70% 30.10 in 10.0 mi East 3.5 mph - N/A   Unknown
4:15 AM 58.6 °F 49.1 °F 71% 30.10 in 10.0 mi Calm Calm - N/A   Unknown
4:35 AM 58.6 °F 49.3 °F 71% 30.10 in 10.0 mi Calm Calm - N/A   Unknown
4:55 AM 58.1 °F 49.8 °F 74% 30.10 in 10.0 mi Calm Calm - N/A   Unknown
5:15 AM 57.7 °F 50.2 °F 76% 30.10 in 10.0 mi Calm Calm - N/A   Unknown
5:35 AM 57.6 °F 50.2 °F 76% 30.10 in 10.0 mi Calm Calm - N/A   Unknown
5:55 AM 56.8 °F 51.8 °F 83% 30.10 in 10.0 mi NNW 3.5 mph - N/A   Unknown
6:15 AM 57.2 °F 51.1 °F 80% 30.11 in 10.0 mi North 4.6 mph - N/A   Unknown
6:35 AM 57.6 °F 51.1 °F 79% 30.11 in 10.0 mi Calm Calm - N/A   Unknown
6:55 AM 57.4 °F 51.4 °F 81% 30.11 in 10.0 mi Calm Calm - N/A   Unknown
7:15 AM 57.7 °F 51.8 °F 81% 30.10 in 10.0 mi NE 3.5 mph - N/A   Unknown
7:35 AM 58.5 °F 52.0 °F 79% 30.11 in 10.0 mi Calm Calm - N/A   Unknown
7:55 AM 59.5 °F 52.3 °F 77% 30.10 in 10.0 mi Calm Calm - N/A   Unknown
8:15 AM 59.7 °F 53.4 °F 80% 30.11 in 10.0 mi NE 3.5 mph - N/A Rain Rain
8:35 AM 59.2 °F 54.3 °F 84% 30.10 in 1.2 mi NNE 3.5 mph - 0.08 in Rain Heavy Rain
8:55 AM 59.7 °F 56.3 °F 88% 30.11 in 3.0 mi Calm Calm - 0.16 in Rain Rain
9:15 AM 60.4 °F 57.4 °F 90% 30.11 in 7.0 mi NE 3.5 mph - 0.02 in Rain Light Rain
9:35 AM 61.3 °F 58.1 °F 89% 30.12 in 7.0 mi North - - 0.02 in Rain Light Rain
9:55 AM 61.7 °F 58.3 °F 89% 30.12 in 7.0 mi Calm Calm - 0.02 in   Light Drizzle
10:15 AM 62.4 °F 59.0 °F 89% 30.12 in 7.0 mi Calm Calm - 0.01 in Rain Light Rain
10:35 AM 64.6 °F 60.4 °F 86% 30.11 in 10.0 mi Calm Calm - 0.01 in   Unknown
10:55 AM 65.1 °F 60.6 °F 85% 30.10 in 10.0 mi North - - 0.01 in   Unknown
11:15 AM 66.0 °F 61.2 °F 84% 30.10 in 10.0 mi North - - N/A   Unknown
11:35 AM 66.2 °F 61.7 °F 85% 30.10 in 10.0 mi NNW 8.1 mph - N/A   Unknown
11:55 AM 64.4 °F 60.4 °F 87% 30.09 in 10.0 mi NNE 8.1 mph - N/A   Unknown
12:15 PM 64.8 °F 60.6 °F 86% 30.08 in 10.0 mi NNE 4.6 mph - N/A   Unknown
12:35 PM 64.6 °F 60.4 °F 86% 30.08 in 10.0 mi NNE 8.1 mph - N/A   Unknown
12:55 PM 62.8 °F 58.6 °F 86% 30.08 in 10.0 mi NNE 9.2 mph - N/A   Unknown
1:15 PM 61.9 °F 57.0 °F 84% 30.07 in 10.0 mi NNE 6.9 mph - N/A   Unknown
1:35 PM 62.1 °F 56.7 °F 82% 30.06 in 10.0 mi NE 6.9 mph - N/A   Unknown
2:15 PM 64.0 °F 57.9 °F 80% 30.04 in 10.0 mi North - - N/A   Unknown
2:35 PM 64.2 °F 57.9 °F 80% 30.04 in 10.0 mi ENE 6.9 mph - N/A   Unknown
2:55 PM 64.6 °F 58.3 °F 80% 30.03 in 10.0 mi North - - N/A   Unknown
3:15 PM 64.9 °F 58.5 °F 79% 30.03 in 10.0 mi North - - N/A   Unknown
3:35 PM 65.3 °F 58.6 °F 79% 30.02 in 10.0 mi North - - N/A   Unknown
3:55 PM 65.5 °F 59.0 °F 80% 30.02 in 10.0 mi North - - N/A   Unknown
4:15 PM 65.8 °F 59.2 °F 79% 30.02 in 10.0 mi North - - N/A   Unknown
4:35 PM 65.5 °F 59.4 °F 81% 30.02 in 10.0 mi North - - N/A   Unknown
4:55 PM 65.5 °F 59.5 °F 81% 30.03 in 10.0 mi North - - N/A   Unknown
5:15 PM 65.3 °F 59.5 °F 82% 30.03 in 10.0 mi North - - N/A   Unknown
5:35 PM 65.1 °F 59.7 °F 83% 30.03 in 10.0 mi North - - N/A   Unknown
5:55 PM 64.9 °F 59.7 °F 83% 30.04 in 10.0 mi Calm Calm - N/A   Unknown
6:15 PM 64.9 °F 59.9 °F 84% 30.04 in 10.0 mi Calm Calm - N/A   Unknown
6:35 PM 64.8 °F 59.9 °F 84% 30.05 in 10.0 mi North - - N/A   Unknown
6:55 PM 64.6 °F 59.9 °F 85% 30.05 in 10.0 mi North - - N/A   Unknown
7:15 PM 64.6 °F 59.9 °F 85% 30.06 in 10.0 mi Calm Calm - N/A   Unknown
7:35 PM 64.4 °F 59.9 °F 85% 30.06 in 10.0 mi NE 3.5 mph - N/A   Unknown
7:55 PM 64.4 °F 59.5 °F 84% 30.07 in 10.0 mi North - - N/A   Unknown
8:15 PM 64.4 °F 59.9 °F 85% 30.07 in 10.0 mi North - - N/A   Unknown
8:35 PM 64.4 °F 59.7 °F 85% 30.07 in 10.0 mi North - - N/A   Unknown
8:55 PM 64.4 °F 59.9 °F 85% 30.07 in 10.0 mi North - - N/A   Unknown
9:15 PM 63.9 °F 59.9 °F 87% 30.08 in 10.0 mi North - - N/A   Unknown
9:35 PM 63.7 °F 59.9 °F 87% 30.08 in 10.0 mi North - - N/A   Unknown
9:55 PM 63.5 °F 59.9 °F 88% 30.07 in 10.0 mi North - - N/A   Unknown
10:15 PM 63.5 °F 59.9 °F 88% 30.07 in 10.0 mi North - - N/A   Unknown
10:35 PM 63.5 °F 59.9 °F 88% 30.07 in 10.0 mi North - - N/A   Unknown
10:55 PM 63.5 °F 59.9 °F 88% 30.07 in 10.0 mi North - - N/A   Unknown
11:15 PM 63.5 °F 59.9 °F 88% 30.06 in 10.0 mi North - - N/A   Unknown
11:35 PM 63.5 °F 59.9 °F 88% 30.07 in 10.0 mi Calm Calm - N/A   Unknown
11:55 PM 63.5 °F 59.9 °F 88% 30.06 in 10.0 mi North - - N/A   Unknown